Tropical Cyclones
[Index]
Main Index Home Page Stock Weather Photos Extreme Storms Discussion Storm News and Storm Chasing Reports Tropical Cyclones / Hurricanes / Typhoons Weather Data and Links Wild Fires / Bushfires Weather Observation Techniques Weather Picture Catalogue Tornado Pictures and Reports Stock Video Footage and DVDs for sale
Season 1974-1975 Tropical Cyclone ROBYN Track Map
Season 1974-1975 Summaries: [BoM-AU] [JTWC-AU] [JTWC-SIO] [JTWC-SPAC] [JTWC-SH]
<<- Previous TC | BoM 1974-1975 Season | Next TC ->>

click for intensity scale information  Lat/long Grid: Show Hide

 Date Labels: Show Hide

Bureau of Meteorology Tropical Cyclone Data

Name: ROBYN
Number: 536 / 197475_07

14 Jan 1975 00:00 UTC to 19 Jan 1975 00:00 UTC

    date/time    lat    long    hPa   cat  kts
1975-01-14 00   11.2    91.1   1004         25          
1975-01-14 03   11.3    91.2   1004         25          
1975-01-14 06   11.5    91.4   1003         25          
1975-01-14 09   11.7    91.5   1003         25          
1975-01-14 12   12.0    91.6   1002         25          
1975-01-14 15   12.3    91.7   1001         25          
1975-01-14 18   12.6    91.8   1000         25          
1975-01-14 21   12.8    91.9   1000         25          
1975-01-15 00   13.2    92.0    999         30          
1975-01-15 03   13.5    92.1    999         30          
1975-01-15 06   13.9    92.0    997         30          
1975-01-15 09   14.2    91.8    995    1    35          
1975-01-15 12   14.6    91.6    994    1    40          
1975-01-15 15   14.9    91.3    992    1    40          
1975-01-15 18   15.2    91.0    991    1    40          
1975-01-15 21   15.5    90.6    990    1    45          
1975-01-16 00   15.8    90.3    988    1    50          
1975-01-16 03   16.0    90.0    987    1    50          
1975-01-16 06   16.2    89.6    985    2    50          
1975-01-16 09   16.3    89.1    983    2    55          
1975-01-16 12   16.4    88.7    981    2    55          
1975-01-16 15   16.6    88.3    979    2    60          
1975-01-16 18   16.7    87.8    976    2    65          
1975-01-16 21   16.6    87.6    974    2    65          
1975-01-17 00   16.8    87.2    973    2    70          
1975-01-17 03   17.0    86.6    971    2    70          
1975-01-17 06   17.2    86.0    968    3    75          
1975-01-17 09   17.4    85.3    966    3    80          
1975-01-17 12   17.6    84.7    964    3    80          
1975-01-17 15   17.8    84.0    966    3    80          
1975-01-17 18   18.0    83.3    968    3    75          
1975-01-17 21   18.1    82.5    971    2    70          
1975-01-18 00   18.3    81.8    973    2    70          
1975-01-18 03   18.4    81.2    975    2    70          
1975-01-18 06   18.5    80.5    978    2    65          
1975-01-18 09   18.6    79.9    980    2    60          
1975-01-18 12   18.7    79.2    982    2    55          
1975-01-18 15   18.9    78.5    984    2    50          
1975-01-18 18   19.0    77.8    985    2    50          
1975-01-18 21   19.1    77.1    987    1    50          
1975-01-19 00   19.3    76.4    988    1    50          
Winds are 10-min average.

Tropical cyclone tracks developed by Michael Bath using data from the Bureau of Meteorology and Google Maps.


[Australian Severe Weather index] [Copyright Notice] [Email Contacts] [Search This Site] [Privacy Policy]
Document: tropical_cyclone_robyn.htm Updated: 4 April 2018